Content
SEND FEEDBACK

Daily
Averages
Monthly
Summary
Canada

QUEBEC CITY, QUEBEC


Home > North America > Canada > Quebec
Elevation: 239 feet     Latitude: 46 48N     Longitude: 071 23W

WEATHER
 
SELECT A DAY
Number of Records: 198,020;   Date Range: 6/30/96 - 12/17/14
 
SHARE

PRINT THIS DATA

[ ← Previous Day ]
WEATHER ALMANAC - MAY 11, 2013
[ Next Day → ]
[ °C ]   °F
Weather ElementAverageHighLow
Temperature48.6 °F52 °F (11:00 pm)44.6 °F (5:00 am)
Dewpoint32.1 °F51 °F (11:00 pm) (7:00 pm)
Humidity92.2 %100 % (10:00 am)78 % (2:00 am)
Wind Speed12 mph26.5 mph (3:00 am)
Wind Gust36.8 mph (3:00 am)
Weather ElementAverage
Visibility5.2 mi
Wind DirectionE (89.6 °)

Weather ElementTotal
Precipitation---
Heating Degree Days16.7 (Base 65)
Averaged from 45 records on May 11, 2013
WEATHER CONDITIONS BREAKOUT
WIND DIRECTION BREAKOUT
WEATHER BY HOUR - MAY 11, 2013
[ °C ]   °F
Local TimeTemperatureDewpointHumidityBarometerVisibilityWind DirectionWind SpeedGust SpeedPrecipitationEventsConditions
1:00 AM48.2 °F42.8 °F82 %29.92 in8.0 miENE (60°)13.8 mph24.2 mphRainLight Rain
2:00 AM48.0 °F43.0 °F78 %29.87 inENE (60°)9.2 mph
2:00 AM48.2 °F42.8 °F82 %29.89 in10.0 miENE (70°)10.4 mph21.9 mphRainLight Rain
3:00 AM46.4 °F42.8 °F87 %29.84 in8.0 miEast (80°)26.5 mph36.8 mphRainLight Rain
4:00 AM46.4 °F42.8 °F87 %29.83 in6.0 miENE (70°)15.0 mph23.0 mphRainLight Rain
5:00 AM44.6 °F42.8 °F93 %29.79 in6.0 miENE (60°)15.0 mph27.6 mphRainLight Rain
5:00 AM46.0 °F44.0 °F89 %29.78 inENE (70°)13.8 mph
5:20 AM46.4 °F0.0 °F6.0 miENE (70°)15.0 mph24.2 mphRainLight Rain
5:49 AM46.4 °F0.0 °F4.0 miNE (50°)17.3 mph23.0 mphRainLight Rain
6:00 AM46.4 °F44.6 °F93 %29.78 in6.0 miENE (70°)13.8 mph23.0 mphRainLight Rain
6:17 AM46.4 °F0.0 °F6.0 miENE (60°)16.1 mph21.9 mphRainLight Rain
7:00 AM46.4 °F44.6 °F93 %29.75 in6.0 miENE (60°)19.6 mph25.3 mphRainLight Rain
8:00 AM47.0 °F46.0 °F94 %29.69 inEast (90°)15.0 mph
8:00 AM46.4 °F44.6 °F93 %29.71 in6.0 miENE (70°)23.0 mph33.4 mphRainLight Rain
8:27 AM46.4 °F0.0 °F2.0 miENE (70°)24.2 mph32.2 mphRainLight Rain
9:00 AM46.4 °F44.6 °F93 %29.69 in3.0 miEast (80°)15.0 mph32.2 mphRainLight Rain
9:34 AM46.4 °F0.0 °F5.0 miENE (70°)19.6 mph27.6 mphRainLight Rain
10:00 AM46.4 °F46.4 °F100 %29.66 in2.0 miENE (70°)18.4 mph25.3 mphRainLight Rain
10:15 AM46.4 °F0.0 °F4.0 miENE (70°)13.8 mph21.9 mphRainLight Rain
10:40 AM46.4 °F0.0 °F1.5 miEast (100°)9.2 mphRainLight Rain
11:00 AM48.0 °F47.0 °F95 %29.65 inEast (90°)11.5 mph
11:00 AM48.2 °F46.4 °F93 %29.66 in3.0 miENE (70°)13.8 mph19.6 mphRainLight Rain
12:00 PM50.0 °F48.2 °F94 %29.65 in6.0 miENE (70°)15.0 mphRainLight Rain
12:20 PM50.0 °F0.0 °F1.5 miEast (80°)5.8 mphRainLight Rain
1:00 PM50.0 °F48.2 °F94 %29.64 in2.0 miENE (60°)6.9 mphRainLight Rain
2:00 PM50.0 °F49.0 °F97 %29.62 inEast (80°)6.9 mph
2:00 PM50.0 °F48.2 °F94 %29.63 in6.0 miENE (60°)8.1 mphRainLight Rain
3:00 PM51.8 °F50.0 °F94 %29.61 in6.0 miENE (70°)12.7 mphRainLight Rain
3:40 PM50.0 °F0.0 °F2.0 miNE (40°)12.7 mph19.6 mphRainLight Rain
4:00 PM50.0 °F48.2 °F94 %29.60 in2.0 miENE (70°)6.9 mphRainLight Rain
5:00 PM51.0 °F50.0 °F94 %29.58 inEast (90°)5.8 mph
5:00 PM50.0 °F48.2 °F94 %29.60 in2.0 miEast (90°)8.1 mphRainLight Rain
5:45 PM50.0 °F0.0 °F6.0 miEast (80°)10.4 mphRainLight Rain
6:00 PM50.0 °F48.2 °F94 %29.61 in6.0 miEast (100°)8.1 mphRainLight Rain
6:08 PM50.0 °F0.0 °F2.0 miSSE (150°)8.1 mphRainLight Rain
6:45 PM50.0 °F0.0 °F6.0 miEast (80°)12.7 mphRainLight Rain
7:00 PM50.0 °F48.2 °F94 %29.63 in10.0 miEast (90°)6.9 mphOvercast
7:42 PM50.0 °F0.0 °F10.0 miEast (80°)5.8 mphOvercast
8:00 PM49.0 °F49.0 °F99 %29.62 inEast (80°)4.6 mph
8:00 PM50.0 °F48.2 °F94 %29.64 in10.0 miENE (70°)4.6 mphOvercast
9:00 PM50.0 °F46.4 °F87 %29.66 in10.0 miESE (110°)2.3 mphOvercast
10:00 PM50.0 °F48.2 °F94 %29.65 in2.5 miSSW (200°)4.6 mphRainLight Rain
10:26 PM51.8 °F0.0 °F4.0 miWSW (240°)11.5 mphRainLight Rain
11:00 PM52.0 °F51.0 °F94 %29.64 inWSW (240°)8.1 mph
11:00 PM51.8 °F50.0 °F94 %29.65 in6.0 miWSW (240°)15.0 mphRainLight Rain
Hourly data recorded from CYQB, located miles away from Quebec City, Quebec







STORIES FROM OUR PARTNERS